This demonstration page uses our WeatherBlox Daily Observations layout. Learn more.

Left ArrowRight Arrow

39.51506, -84.39828

Hourly Observations for March 16, 2020

Temp ( °F °C ) Dew Point ( °F °C ) Humidity (%) Winds ( mph kmh ) Pressure ( in mb ) Visibility ( mi km ) Precip ( " mm )
12:15 am 00:15 Cloudy 41 4.9 32 0.2 72 72 NNE 3 6 30.5 1033 10 16.0934 0 0
12:35 am 00:35 Cloudy 41 4.8 32 0.1 72 72 NNE 6 9 30.49 1033 10 16.0934 0 0
12:55 am 00:55 Cloudy 40 4.6 32 0.2 73 73 NNE 6 9 30.48 1032 10 16.0934 0 0
1:15 am 01:15 Cloudy 40 4.5 32 0 73 73 NNE 6 9 30.47 1032 10 16.0934 0 0
1:35 am 01:35 Cloudy 40 4.3 31 -0.4 72 72 N 5 7 30.46 1032 10 16.0934 0 0
1:55 am 01:55 Cloudy 39 4.1 31 -0.5 72 72 NNE 7 11 30.46 1032 10 16.0934 0 0
2:15 am 02:15 Cloudy 39 3.9 31 -0.6 73 73 NNE 6 9 30.47 1032 10 16.0934 0 0
2:35 am 02:35 Cloudy 39 3.9 29 -1.5 68 68 NE 10 17 30.46 1031 10 16.0934 0 0
2:55 am 02:55 Cloudy 39 3.8 29 -1.4 69 69 NNE 5 7 30.45 1031 10 16.0934 0 0
3:15 am 03:15 Cloudy 39 3.7 29 -1.7 68 68 NNE 6 9 30.45 1031 10 16.0934 0 0
3:35 am 03:35 Cloudy 39 3.7 28 -2.2 66 66 NE 7 11 30.45 1031 10 16.0934 0 0
3:55 am 03:55 Cloudy 38 3.6 27 -2.9 63 63 NE 6 9 30.44 1031 10 16.0934 0 0
4:15 am 04:15 Cloudy 38 3.4 26 -3.1 63 63 NE 8 13 30.44 1031 10 16.0934 0 0
4:35 am 04:35 Cloudy 38 3.4 26 -3.5 61 61 NE 8 13 30.43 1030 10 16.0934 0 0
4:55 am 04:55 Cloudy 38 3.2 26 -3.6 61 61 NE 6 9 30.42 1030 10 16.0934 0 0
5:15 am 05:15 Cloudy 38 3.1 25 -3.7 61 61 NE 7 11 30.41 1030 10 16.0934 0 0
5:35 am 05:35 Cloudy 37 3 26 -3.5 63 63 NE 7 11 30.4 1029 10 16.0934 0 0
5:55 am 05:55 Cloudy 37 3 25 -3.7 62 62 NE 5 7 30.41 1030 10 16.0934 0 0
6:15 am 06:15 Cloudy 37 2.9 26 -3.4 64 64 ENE 3 6 30.41 1030 10 16.0934 0 0
6:35 am 06:35 Cloudy 37 2.8 26 -3.3 65 65 ENE 3 6 30.4 1029 10 16.0934 0 0
6:55 am 06:55 Cloudy 37 2.9 26 -3.2 65 65 ENE 3 6 30.4 1029 10 16.0934 0 0
7:15 am 07:15 Cloudy 37 2.9 27 -3 66 66 Calm 30.41 1030 10 16.0934 0 0
7:35 am 07:35 Cloudy 37 2.9 26 -3.2 65 65 Calm 30.42 1030 10 16.0934 0 0
7:55 am 07:55 Cloudy 37 2.9 27 -2.8 66 66 Calm 30.42 1030 10 16.0934 0 0
8:15 am 08:15 Cloudy 37 2.9 28 -2.3 69 69 Calm 30.41 1030 10 16.0934 0 0
8:35 am 08:35 Cloudy 37 3 27 -2.7 67 67 Calm 30.43 1030 10 16.0934 0 0
8:55 am 08:55 Cloudy 38 3.1 28 -2.4 68 68 Calm 30.43 1030 10 16.0934 0 0
9:15 am 09:15 Cloudy 38 3.4 27 -2.6 65 65 NNE 5 7 30.42 1030 10 16.0934 0 0
9:35 am 09:35 Cloudy 38 3.6 28 -2.5 65 65 ENE 6 9 30.41 1030 10 16.0934 0 0
9:55 am 09:55 Cloudy 39 3.8 27 -2.6 63 63 ENE 6 9 30.4 1029 10 16.0934 0 0
10:15 am 10:15 Cloudy 39 4.1 28 -2.1 64 64 ENE 5 7 30.38 1029 10 16.0934 0 0
10:35 am 10:35 Cloudy 40 4.5 28 -2.2 62 62 E 3 6 30.37 1029 10 16.0934 0 0
10:55 am 10:55 Cloudy 41 4.9 29 -1.9 62 62 Calm 30.39 1029 10 16.0934 0 0
11:15 am 11:15 Cloudy 42 5.5 29 -1.6 61 61 Calm 30.38 1029 10 16.0934 0 0
11:35 am 11:35 Cloudy 42 5.8 30 -1.3 61 61 Calm 30.36 1028 10 16.0934 0 0
11:55 am 11:55 Cloudy 43 6.1 31 -0.7 62 62 Calm 30.36 1028 10 16.0934 0 0
12:15 pm 12:15 Cloudy 43 6.3 31 -0.5 62 62 Calm 30.36 1028 10 16.0934 0 0
12:35 pm 12:35 Cloudy 45 7 32 0 61 61 Calm 30.36 1028 10 16.0934 0 0
12:55 pm 12:55 Cloudy 46 7.5 33 0.4 61 61 SW 8 13 30.36 1028 10 16.0934 0 0
1:15 pm 13:15 Cloudy 46 7.7 33 0.8 62 62 Calm 30.34 1028 10 16.0934 0 0
1:35 pm 13:35 Partly Cloudy 46 7.9 33 0.6 60 60 S 3 6 30.32 1027 10 16.0934 0 0
1:55 pm 13:55 Mostly Cloudy 47 8.3 34 1 60 60 Calm 30.3 1026 10 16.0934 0 0
2:15 pm 14:15 Partly Cloudy 48 8.7 34 1.1 59 59 Calm 30.29 1026 10 16.0934 0 0
2:35 pm 14:35 Mostly Cloudy 48 8.8 34 0.9 58 58 SW 3 6 30.28 1025 10 16.0934 0 0
2:55 pm 14:55 Partly Cloudy 48 9.1 34 1.3 58 58 SSW 6 9 30.27 1025 10 16.0934 0 0
3:15 pm 15:15 Mostly Cloudy 49 9.2 34 1.3 58 58 SW 7 11 30.25 1024 10 16.0934 0 0
3:35 pm 15:35 Mostly Cloudy 48 8.9 34 1.2 59 59 Calm 30.23 1024 10 16.0934 0 0
3:55 pm 15:55 Cloudy 48 8.9 35 1.5 60 60 S 6 9 30.23 1024 10 16.0934 0 0
4:15 pm 16:15 Cloudy 49 9.2 35 1.8 60 60 S 7 11 30.23 1024 10 16.0934 0 0
4:35 pm 16:35 Cloudy 49 9.2 36 2 61 61 SSW 9 15 30.23 1024 10 16.0934 0 0
4:55 pm 16:55 Cloudy 49 9.5 36 2.1 60 60 S 7 11 30.21 1023 10 16.0934 0 0
5:15 pm 17:15 Cloudy with Haze 49 9.5 36 2.1 60 60 SSW 8 13 30.23 1024 7 11.26538 0 0
5:35 pm 17:35 Cloudy 49 9.2 36 2.2 62 62 SSW 12 19 30.22 1023 10 16.0934 0 0
5:55 pm 17:55 Cloudy 48 9.1 37 2.5 64 64 S 12 19 30.22 1023 10 16.0934 0 0
6:15 pm 18:15 Cloudy 48 8.7 37 2.8 67 67 SSW 9 15 30.22 1023 10 16.0934 0 0
6:35 pm 18:35 Cloudy 47 8.5 37 2.7 67 67 S 10 17 30.2 1023 10 16.0934 0 0
6:55 pm 18:55 Cloudy 47 8.1 37 2.8 70 70 S 9 15 30.2 1023 10 16.0934 0 0
7:15 pm 19:15 Cloudy 46 7.9 37 2.8 70 70 S 7 11 30.2 1023 10 16.0934 0 0
7:35 pm 19:35 Cloudy with Light Rain 46 7.8 37 2.9 71 71 SSW 9 15 30.21 1023 10 16.0934 0 0
7:55 pm 19:55 Cloudy 46 7.7 38 3.1 73 73 SSW 8 13 30.22 1024 10 16.0934 0 0
8:15 pm 20:15 Cloudy with Light Rain 46 7.5 38 3.3 75 75 S 8 13 30.23 1024 10 16.0934 0 0
8:35 pm 20:35 Cloudy with Light Rain 46 7.7 38 3.1 73 73 S 7 11 30.22 1024 10 16.0934 0 0
8:55 pm 20:55 Cloudy with Light Rain 45 7.4 39 3.7 78 78 SSW 7 11 30.24 1024 10 16.0934 0 0
9:15 pm 21:15 Cloudy 45 7.3 39 4 80 80 SSW 3 6 30.23 1024 10 16.0934 0 0
9:35 pm 21:35 Cloudy with Light Rain 45 7.3 39 4.1 80 80 SW 5 7 30.24 1024 10 16.0934 0 0
9:55 pm 21:55 Cloudy 45 7.2 39 4 80 80 S 3 6 30.23 1024 10 16.0934 0 0
10:15 pm 22:15 Cloudy 45 7.2 39 3.8 79 79 S 6 9 30.23 1024 10 16.0934 0 0
10:35 pm 22:35 Cloudy 45 7.3 39 3.7 78 78 SSW 6 9 30.23 1024 10 16.0934 0 0
10:55 pm 22:55 Cloudy 45 7.1 39 3.9 80 80 SSW 6 9 30.23 1024 10 16.0934 0 0
11:15 pm 23:15 Cloudy with Light Rain 44 6.8 40 4.4 85 85 SSW 6 9 30.23 1024 10 16.0934 0 0
11:35 pm 23:35 Cloudy with Light Rain 44 6.6 41 4.8 88 88 S 3 6 30.21 1023 10 16.0934 0 0
11:55 pm 23:55 Cloudy 44 6.5 41 4.9 90 90 Calm 30.21 1023 10 16.0934 0 0

Powered by AerisWeather